Погода в Старом Синдрове

Россия / Республика Мордовия     54°25′02″N   44°06′47″E
темп.,
°C
ветер,
м/с
пор.,
м/с
влажн.,
%
обл.,
%
осадки,
мм/ч
давл.,
гПа
погр.,
м
5 марта, пт
пт500:00−3сз1295100 0.1 99927
03:00−4с2297100 0.9 100064
06:00−5ссз2397100 0.8 100182
09:00−5ссз469499 1.1 1004334
12:00−4зсз359091 0.0 1006566
15:00−3з468593 0.1 1008703
18:00−7зюз359041 0.0 100993
21:00−7з499370 0.3 1012222
6 марта, сб
сб600:00−10з359594 0.0 101390
03:00−13зсз339447 0.0 101525
06:00−16з22940 0.0 101620
09:00−12з12900 0.0 101785
12:00−8зюз23870 0.0 1016287
15:00−6зюз238926 0.0 1015341
18:00−10юз239583 0.0 101521
21:00−12зюз229363 0.0 101521
7 марта, вс
вс700:00−14зюз239717 0.0 101421
03:00−14юз239757 0.1 101432
06:00−15юз349897 0.1 101371
09:00−12ююз599386 0.1 1011272
12:00−7ююз7128883 0.0 1007661
15:00−5ююз9148492 0.0 10041009
18:00−5ююз101793100 0.5 9991147
21:00−4ююз101793100 1.6 9951063
8 марта, пн
пн800:00−6з101694100 0.9 9941001
03:00−9зюз7158582 1.0 997524
06:00−11юз6148737 0.0 997415
09:00−8юз7139156 0.0 996685
12:00−5зюз71193100 0.6 9961025
15:00−5зюз71287100 1.0 998803
18:00−8з5128474 0.3 1000322
21:00−11зюз4119368 0.3 1002254
9 марта, вт
вт900:00−9з5119489 0.2 1003453
03:00−10зсз5109495 0.4 1005401
06:00−14зсз499790 0.1 1008187
09:00−13зсз489593 0.1 1010357
12:00−11зсз4689100 0.1 1012692
15:00−10зсз5787100 0.3 1013843
18:00−13зсз3495100 0.1 101379
21:00−14зсз2396100 0.2 101574